Regional Weather Roundup
Issued by NWS Mt. Holly, NJ

Home | Current Version | Previous Version | Text Only | Print | Product List | Glossary On
Versions: 1 2 3 4 5 6 7 8 9 10 11 12 13 14 15 16 17 18 19 20 21 22 23 24 25 26 27
000
ASUS41 KPHI 210513
RWRPHI

REGIONAL WEATHER ROUNDUP
NATIONAL WEATHER SERVICE MOUNT HOLLY NJ
100 AM EDT MON MAY 21 2018

NOTE:  "FAIR" INDICATES FEW OR NO CLOUDS BELOW 12,000 FEET WITH NO
SIGNIFICANT WEATHER AND/OR OBSTRUCTIONS TO VISIBILITY.

 * = STATION DOES NOT REPORT PRECIPITATION (E.G. RAIN, SNOW, ETC.)
        OR FOG.

NJZ015>026-210600-
SOUTHERN NEW JERSEY

CITY           SKY/WX    TMP DP  RH WIND       PRES   REMARKS
POMONA         FAIR      67  64  90 N7        30.06F
WILDWOOD*      FAIR      68  67  96 N5        30.06S
MILLVILLE      FAIR      68  63  84 NE5       30.07R
WRIGHTSTOWN    FAIR      63  58  84 NE5       30.06R
MOUNT HOLLY    FAIR      65  60  84 N3        30.08S
TRENTON        FAIR      64  57  78 N3        30.08S

$$
NJZ001>014-210600-
NORTHERN NEW JERSEY

CITY           SKY/WX    TMP DP  RH WIND       PRES   REMARKS
SUSSEX         FAIR      54  53  97 CALM      30.11R
ANDOVER*         N/A     55  55 100 CALM      30.11R
MORRISTOWN     FAIR      59  55  88 CALM      30.09S
NEWARK         FAIR      66  53  63 NW6       30.08R
TETERBORO      FAIR      64  53  67 NW5       30.07R
CALDWELL       FAIR      60  55  83 CALM      30.10R
SOMERVILLE     FAIR      58  57  97 NW3       30.08R
ALLAIRE*       FAIR      64  56  75 N6        30.09S
TOMS RIVER*    FAIR      64  59  83 N5        30.08S

$$
PAZ043-044-047-054-055-060>062-066>071-210600-
EASTERN PENNSYLVANIA

CITY           SKY/WX    TMP DP  RH WIND       PRES   REMARKS
PHILADELPHIA   CLOUDY    69  58  67 N9        30.09R
NORTH PHILA    FAIR      65  58  78 N5        30.10S
BLUE BELL*     FAIR      59  59 100 CALM      30.11S
DOYLESTOWN     FAIR      62  57  83 CALM      30.09R
PERKASIE*      FAIR      57  57 100 N3        30.12R
POTTSTOWN      FAIR      60  58  92 N3        30.12R
LANCASTER      FAIR      64  58  80 CALM      30.10R
COATESVILLE    FAIR      64  59  82 CALM      30.12R
READING        FAIR      63  60  90 CALM      30.10R
ALLENTOWN      FAIR      62  54  74 NW5       30.12R
MOUNT POCONO   FAIR      54  53  97 NW9       30.12S
HAZLETON       FAIR      55  52  88 NW3       30.17R
LEHIGHTON      FAIR      54  54 100 CALM      30.14R
WILKES BARRE   FAIR      54  53  97 CALM      30.13S

$$
DEZALL-MDZ008-012-015-019-020-210600-
DELAWARE AND EASTERN MARYLAND

CITY           SKY/WX    TMP DP  RH WIND       PRES   REMARKS
WILMINGTON     FAIR      67  61  81 N8        30.09R
DOVER          FAIR      69  66  92 N10       30.06R
GEORGETOWN     MOCLDY    73  70  90 CALM      30.06R
EASTON         FAIR      73  67  81 N5        30.09F
PATUXENT       FAIR      77  71  82 N7        30.05
OCEAN CITY     MOCLDY    72  69  90 NE6       30.06R
WALLOPS ISLAND FAIR      74  71  91 SW6       30.05S
CAMBRIDGE      CLEAR     72  70  94 CALM      30.05S
SALISBURY      FAIR      73  71  93 CALM      30.05R

$$
PAZ001-021-NYZ056-072-MDZ011-DCZ001-210600-
OTHER NEARBY LOCATIONS

CITY           SKY/WX    TMP DP  RH WIND       PRES   REMARKS
HARRISBURG     MOCLDY    63  60  90 N3        30.10R
STATE COLLEGE  FAIR      60  55  85 CALM      30.15S
WILLIAMSPORT   FAIR      55  53  93 CALM      30.12S
BINGHAMTON     FAIR      53  52  96 N5        30.14R
NEW YORK CITY  FAIR      66  52  60 CALM      30.10R
BALTIMORE      MOCLDY    68  64  87 CALM      30.07R
WASHINGTON DC  MOCLDY    73  64  73 NE8       30.07S

$$




USA.gov is the U.S. government's official web portal to all federal, state and local government web resources and services.